SDG002 LICP-LICC

Flight info

Callsign SDG002
Flight time 0h 44m
Altitude 5500
Route MONREALE PORTELLADELLAGINESTRA PIANADEGLIALBANESI ENNA LAGODIPERGUSA LAGODIOGLIASTRO
Aircraft P28/L-S/C

Departure

Time 2026-05-06 08:51
Airport Palermo-Boccadifalco Airport (LICP)

Arrival

Time 2026-05-06 09:36
Airport Catania-Fontanarossa Airport (LICC)
Time Latitude Longitude Altitude Speed Heading
2026-05-06 08:51 37.95204 13.36704 5695 ft 120 kts 121°
2026-05-06 08:51 37.94873 13.37483 5694 ft 121 kts 121°
2026-05-06 08:52 37.93476 13.40802 5505 ft 129 kts 120°
2026-05-06 08:52 37.93132 13.41620 5517 ft 124 kts 121°
2026-05-06 08:52 37.92897 13.42175 5519 ft 124 kts 121°
2026-05-06 08:52 37.92542 13.43021 5520 ft 122 kts 120°
2026-05-06 08:53 37.92070 13.44142 5521 ft 121 kts 121°
2026-05-06 08:53 37.91675 13.45082 5520 ft 120 kts 121°
2026-05-06 08:53 37.91300 13.45969 5520 ft 120 kts 121°
2026-05-06 08:53 37.90908 13.46901 5521 ft 120 kts 121°
2026-05-06 08:54 37.90510 13.47840 5520 ft 120 kts 121°
2026-05-06 08:54 37.90118 13.48774 5520 ft 120 kts 121°
2026-05-06 08:54 37.89751 13.49645 5522 ft 120 kts 121°
2026-05-06 08:54 37.89361 13.50568 5522 ft 120 kts 121°
2026-05-06 08:55 37.88965 13.51507 5522 ft 120 kts 121°
2026-05-06 08:55 37.88571 13.52440 5522 ft 120 kts 121°
2026-05-06 08:55 37.88178 13.53370 5523 ft 120 kts 121°
2026-05-06 08:55 37.87797 13.54275 5522 ft 120 kts 121°
2026-05-06 08:56 37.87408 13.55194 5522 ft 120 kts 121°
2026-05-06 08:56 37.87030 13.56093 5519 ft 112 kts 121°
2026-05-06 08:56 37.86691 13.56900 5519 ft 103 kts 121°
2026-05-06 08:56 37.86351 13.57697 5522 ft 103 kts 121°
2026-05-06 08:57 37.86027 13.58461 5522 ft 103 kts 121°
2026-05-06 08:57 37.84980 13.60937 5522 ft 103 kts 121°
2026-05-06 08:58 37.84631 13.61762 5523 ft 109 kts 121°
2026-05-06 08:58 37.84267 13.62618 5523 ft 113 kts 121°
2026-05-06 08:58 37.83890 13.63511 5523 ft 115 kts 120°
2026-05-06 08:58 37.83514 13.64398 5523 ft 117 kts 120°
2026-05-06 08:59 37.83144 13.65274 5523 ft 118 kts 121°
2026-05-06 08:59 37.82766 13.66157 5523 ft 118 kts 122°
2026-05-06 08:59 37.82339 13.67164 5521 ft 118 kts 121°
2026-05-06 09:00 37.81556 13.69008 5522 ft 118 kts 121°
2026-05-06 09:00 37.81175 13.69908 5521 ft 118 kts 121°
2026-05-06 09:00 37.80698 13.71029 5522 ft 118 kts 121°
2026-05-06 09:01 37.80329 13.71902 5522 ft 117 kts 121°
2026-05-06 09:01 37.79613 13.73594 5522 ft 118 kts 121°
2026-05-06 09:01 37.79251 13.74445 5522 ft 118 kts 121°
2026-05-06 09:02 37.78870 13.75330 5522 ft 118 kts 121°
2026-05-06 09:02 37.78505 13.76188 5522 ft 118 kts 121°
2026-05-06 09:02 37.77911 13.77590 5521 ft 117 kts 121°
2026-05-06 09:03 37.77543 13.78445 5523 ft 118 kts 121°
2026-05-06 09:03 37.77060 13.79576 5522 ft 118 kts 121°
2026-05-06 09:03 37.76694 13.80436 5522 ft 118 kts 121°
2026-05-06 09:03 37.76334 13.81279 5522 ft 118 kts 121°
2026-05-06 09:04 37.75962 13.82149 5522 ft 118 kts 121°
2026-05-06 09:04 37.75226 13.83887 5522 ft 118 kts 121°
2026-05-06 09:04 37.74880 13.84696 5522 ft 118 kts 121°
2026-05-06 09:05 37.73319 13.88345 5522 ft 119 kts 121°
2026-05-06 09:06 37.72894 13.89343 5522 ft 118 kts 121°
2026-05-06 09:06 37.72104 13.91192 5522 ft 118 kts 121°
2026-05-06 09:06 37.71711 13.92114 5522 ft 118 kts 121°
2026-05-06 09:07 37.71327 13.93013 5523 ft 117 kts 121°
2026-05-06 09:07 37.70936 13.93929 5526 ft 117 kts 121°
2026-05-06 09:07 37.70551 13.94828 5527 ft 117 kts 121°
2026-05-06 09:07 37.70163 13.95736 5529 ft 117 kts 121°
2026-05-06 09:08 37.69772 13.96651 5531 ft 118 kts 121°
2026-05-06 09:08 37.69387 13.97553 5537 ft 118 kts 121°
2026-05-06 09:08 37.68994 13.98470 5541 ft 118 kts 121°
2026-05-06 09:08 37.68602 13.99381 5545 ft 118 kts 121°
2026-05-06 09:09 37.68214 14.00281 5548 ft 118 kts 121°
2026-05-06 09:09 37.67823 14.01197 5551 ft 118 kts 121°
2026-05-06 09:09 37.67436 14.02104 5553 ft 117 kts 121°
2026-05-06 09:09 37.67048 14.03007 5556 ft 117 kts 121°
2026-05-06 09:10 37.66656 14.03922 5559 ft 117 kts 121°
2026-05-06 09:10 37.66271 14.04823 5562 ft 117 kts 121°
2026-05-06 09:10 37.65882 14.05728 5566 ft 117 kts 121°
2026-05-06 09:10 37.65490 14.06638 5569 ft 117 kts 121°
2026-05-06 09:11 37.65105 14.07532 5571 ft 117 kts 121°
2026-05-06 09:11 37.64716 14.08429 5575 ft 117 kts 121°
2026-05-06 09:11 37.64329 14.09328 5578 ft 118 kts 121°
2026-05-06 09:11 37.63942 14.10229 5581 ft 117 kts 121°
2026-05-06 09:12 37.63548 14.11145 5584 ft 118 kts 121°
2026-05-06 09:12 37.63163 14.12045 5587 ft 117 kts 122°
2026-05-06 09:12 37.62772 14.12960 5590 ft 117 kts 122°
2026-05-06 09:12 37.62389 14.13846 5593 ft 117 kts 122°
2026-05-06 09:13 37.61998 14.14755 5596 ft 117 kts 121°
2026-05-06 09:13 37.61608 14.15663 5598 ft 117 kts 121°
2026-05-06 09:13 37.61219 14.16563 5601 ft 117 kts 122°
2026-05-06 09:13 37.60829 14.17467 5601 ft 117 kts 121°
2026-05-06 09:14 37.60436 14.18375 5601 ft 118 kts 121°
2026-05-06 09:14 37.60043 14.19292 5602 ft 118 kts 121°
2026-05-06 09:14 37.59652 14.20200 5601 ft 118 kts 121°
2026-05-06 09:14 37.59259 14.21108 5601 ft 117 kts 121°
2026-05-06 09:15 37.58855 14.22042 5603 ft 123 kts 121°
2026-05-06 09:15 37.58460 14.22960 5603 ft 126 kts 121°
2026-05-06 09:15 37.58036 14.23939 5602 ft 128 kts 121°
2026-05-06 09:15 37.57604 14.24934 5602 ft 132 kts 121°
2026-05-06 09:16 37.57153 14.25977 5602 ft 136 kts 121°
2026-05-06 09:16 37.56691 14.27019 5600 ft 137 kts 125°
2026-05-06 09:16 37.55945 14.27721 5601 ft 135 kts 153°
2026-05-06 09:16 37.55107 14.28270 5601 ft 135 kts 154°
2026-05-06 09:17 37.54264 14.28795 5601 ft 136 kts 155°
2026-05-06 09:17 37.53406 14.29312 5603 ft 135 kts 156°
2026-05-06 09:17 37.52551 14.29820 5601 ft 136 kts 156°
2026-05-06 09:17 37.51735 14.30405 5595 ft 138 kts 137°
2026-05-06 09:18 37.51282 14.31472 5602 ft 140 kts 114°
2026-05-06 09:18 37.50940 14.32632 5601 ft 140 kts 112°
2026-05-06 09:18 37.50622 14.33783 5601 ft 139 kts 112°
2026-05-06 09:18 37.50308 14.34952 5601 ft 139 kts 111°
2026-05-06 09:19 37.50005 14.36102 5601 ft 139 kts 111°
2026-05-06 09:19 37.49703 14.37265 5602 ft 139 kts 111°
2026-05-06 09:19 37.49404 14.38430 5601 ft 139 kts 111°
2026-05-06 09:19 37.49106 14.39602 5602 ft 139 kts 110°
2026-05-06 09:20 37.48814 14.40752 5602 ft 139 kts 110°
2026-05-06 09:20 37.48517 14.41914 5601 ft 139 kts 110°
2026-05-06 09:20 37.48225 14.43080 5602 ft 140 kts 110°
2026-05-06 09:20 37.47928 14.44251 5601 ft 140 kts 111°
2026-05-06 09:21 37.47635 14.45413 5601 ft 139 kts 110°
2026-05-06 09:21 37.47343 14.46574 5601 ft 139 kts 110°
2026-05-06 09:21 37.47047 14.47751 5602 ft 139 kts 110°
2026-05-06 09:21 37.46758 14.48910 5602 ft 140 kts 110°
2026-05-06 09:22 37.46462 14.50083 5601 ft 139 kts 110°
2026-05-06 09:22 37.46169 14.51242 5602 ft 139 kts 111°
2026-05-06 09:22 37.45878 14.52395 5601 ft 139 kts 110°
2026-05-06 09:22 37.45583 14.53563 5602 ft 139 kts 110°
2026-05-06 09:23 37.45295 14.54700 5602 ft 140 kts 110°
2026-05-06 09:23 37.45059 14.55885 5532 ft 146 kts 96°
2026-05-06 09:23 37.45063 14.57138 5520 ft 144 kts 91°
2026-05-06 09:23 37.45096 14.58348 5519 ft 143 kts 90°
2026-05-06 09:24 37.45135 14.59545 5519 ft 143 kts 90°
2026-05-06 09:24 37.45176 14.60784 5519 ft 143 kts 90°
2026-05-06 09:24 37.45214 14.61884 5519 ft 142 kts 90°
2026-05-06 09:24 37.45255 14.63076 5519 ft 143 kts 90°
2026-05-06 09:25 37.45306 14.64548 5519 ft 143 kts 90°
2026-05-06 09:25 37.45333 14.65352 5519 ft 143 kts 91°
2026-05-06 09:25 37.45408 14.67508 5518 ft 142 kts 91°
2026-05-06 09:26 37.45448 14.68694 5519 ft 142 kts 91°
2026-05-06 09:26 37.45488 14.69884 5518 ft 142 kts 91°
2026-05-06 09:26 37.45526 14.71072 5519 ft 142 kts 91°
2026-05-06 09:26 37.45580 14.72730 5472 ft 145 kts 91°
2026-05-06 09:27 37.45623 14.74027 5360 ft 150 kts 91°
2026-05-06 09:27 37.45666 14.75347 5248 ft 152 kts 90°
2026-05-06 09:27 37.45712 14.76696 5098 ft 154 kts 90°
2026-05-06 09:27 37.45757 14.78050 4948 ft 156 kts 90°
2026-05-06 09:28 37.45801 14.79415 4796 ft 151 kts 90°
2026-05-06 09:28 37.45845 14.80707 4642 ft 141 kts 90°
2026-05-06 09:28 37.45885 14.81878 4489 ft 129 kts 91°
2026-05-06 09:28 37.45921 14.82987 4337 ft 123 kts 91°
2026-05-06 09:29 37.45956 14.84051 4186 ft 120 kts 91°
2026-05-06 09:29 37.45990 14.85103 4034 ft 118 kts 91°
2026-05-06 09:29 37.46022 14.86126 3884 ft 117 kts 91°
2026-05-06 09:29 37.46057 14.87157 3733 ft 117 kts 91°
2026-05-06 09:30 37.46088 14.88178 3583 ft 117 kts 91°
2026-05-06 09:30 37.46122 14.89200 3432 ft 114 kts 91°
2026-05-06 09:30 37.46151 14.90083 3289 ft 101 kts 91°
2026-05-06 09:30 37.46180 14.90957 3136 ft 97 kts 92°
2026-05-06 09:31 37.46207 14.91791 2986 ft 95 kts 92°
2026-05-06 09:31 37.46234 14.92624 2834 ft 94 kts 92°
2026-05-06 09:31 37.46259 14.93449 2684 ft 94 kts 91°
2026-05-06 09:31 37.46285 14.94271 2534 ft 94 kts 91°
2026-05-06 09:32 37.46309 14.95094 2384 ft 94 kts 91°
2026-05-06 09:32 37.46334 14.95917 2234 ft 93 kts 91°
2026-05-06 09:32 37.46362 14.96740 2083 ft 93 kts 91°
2026-05-06 09:32 37.46386 14.97549 1933 ft 92 kts 91°
2026-05-06 09:33 37.46411 14.98356 1783 ft 92 kts 91°
2026-05-06 09:33 37.46435 14.99151 1632 ft 89 kts 91°
2026-05-06 09:33 37.46460 14.99903 1463 ft 84 kts 92°
2026-05-06 09:33 37.46444 15.00639 1193 ft 83 kts 94°
2026-05-06 09:34 37.46404 15.01354 944 ft 81 kts 94°
2026-05-06 09:34 37.46388 15.02058 716 ft 81 kts 92°
2026-05-06 09:34 37.46400 15.02750 525 ft 77 kts 89°
2026-05-06 09:34 37.46437 15.03425 357 ft 76 kts 88°
2026-05-06 09:35 37.46471 15.04089 229 ft 75 kts 88°
2026-05-06 09:35 37.46525 15.04738 134 ft 73 kts 86°
2026-05-06 09:35 37.46573 15.05361 53 ft 69 kts 86°
2026-05-06 09:35 37.46625 15.05928 26 ft 62 kts 83°
2026-05-06 09:36 37.46701 15.06237 20 ft 20 kts 15°
2026-05-06 09:36 37.46759 15.06288 19 ft 13 kts 13°
2026-05-06 09:36 37.46836 15.06298 20 ft 15 kts
2026-05-06 09:36 37.46852 15.06299 20 ft 0 kts